Tracking 17886 objects as of 9-December-2016
HD Live streaming from Space Station
objects crossing your sky now

ARIANE 44L R/B

Track ARIANE 44L R/B now!


NORAD ID: 26696
Int'l Code: 2001-005C
Perigee: 425.2 km
Apogee: 32,140.6 km
Inclination: 7.2 °
Period: 565.6 minutes
Semi major axis: 22653 km
RCS: 23.3181 m2 (large)
Launch date: February 7, 2001
Source: France (FR)
Launch site: FRENCH GUIANA (FRGUI)

Note: This is a ROCKET BODY
Your satellite tracking list
Your tracking list is empty





NASA's NSSDC Master Catalog

Two Line Element Set (TLE):
1 26696U 01005C   16342.33903239  .00000421  00000-0  62865-3 0  9990
2 26696   7.1901 306.7965 7049163  88.9679 343.9961  2.54617953138382
Source of the keplerian elements: AFSPC